sat.trackr.live / text

‹ back to catalog

STARLINK-31218

NORAD 58895 · 2024-020V

PAYLOAD ACTIVE UNKNOWN

§ Identity

Operator
Country
US
Launch date
2024-01-29
Launch site
AFWTR
Launch vehicle
Mass (kg)
RCS (m²)

Purposes: comms

External: N2YO · Heavens-Above · Gunter

§ Orbital elements

Epoch: 2026-05-24T20:24:14.421888Z

Period
94.01 min
Inclination
53.1609°
Eccentricity
0.0001538
Mean motion
15.31708552 rev/d
Perigee alt
469.7 km
Apogee alt
471.8 km
Semi-major
6,848.9 km
B*
4.6479e-7
RAAN
328.5179°
Arg perigee
90.4128°
Mean anomaly
269.7049°
Rev number
12,973

§ Raw data

STARLINK-312181 58895U 24020V   26144.85016692 -.00000351  00000+0  46479-6 0  99922 58895  53.1609 328.5179 0001538  90.4128 269.7049 15.31708552129733

JSON: /api/v1/satellites/58895 · /tle

For live sub-satellite position, see the globe view (requires WebGL).

§ Visibility from observer

Set your observer location to see the next 7 days of passes ≥ 10°. The values pass through the URL so the page stays shareable.

No JS? Fill the form by hand. The geolocation button needs JavaScript.